sat.trackr.live / text

‹ back to catalog

STARLINK-6052

NORAD 56793 · 2023-078AC

PAYLOAD ACTIVE UNKNOWN

§ Identity

Operator
Country
US
Launch date
2023-05-31
Launch site
AFWTR
Launch vehicle
Mass (kg)
RCS (m²)

Purposes: comms

External: N2YO · Heavens-Above · Gunter

§ Orbital elements

Epoch: 2026-09-20T06:01:28.566048Z

Period
96.11 min
Inclination
69.9994°
Eccentricity
0.0003234
Mean motion
14.98327669 rev/d
Perigee alt
569.8 km
Apogee alt
574.3 km
Semi-major
6,950.2 km
B*
7.2951e-5
RAAN
213.8949°
Arg perigee
262.7607°
Mean anomaly
97.3184°
Rev number
18,182

§ Raw data

STARLINK-60521 56793U 23078AC  26263.25102507  .00000777  00000+0  72951-4 0  99992 56793  69.9994 213.8949 0003234 262.7607  97.3184 14.98327669181823

JSON: /api/v1/satellites/56793 · /tle

For live sub-satellite position, see the globe view (requires WebGL).

§ Visibility from observer

Set your observer location to see the next 7 days of passes ≥ 10°. The values pass through the URL so the page stays shareable.

No JS? Fill the form by hand. The geolocation button needs JavaScript.